Weather History for Delaware, OH

Change the Weather History Date:

Thursday, March 7, 2013

  Actual Average Record
Temperature  
Mean Temperature 34 °F -  
Max Temperature 37 °F 45 °F 74 °F (1973)
Min Temperature 30 °F 25 °F 6 °F (1943)
Degree Days  
Heating Degree Days 32    
Moisture  
Dew Point 28 °F    
Average Humidity 83    
Maximum Humidity 87    
Minimum Humidity 70    
Precipitation  
Precipitation 0.00 in - - ()
Sea Level Pressure  
Sea Level Pressure 30.28 in    
Wind  
Wind Speed 7 mph (NW)    
Max Wind Speed 14 mph    
Max Gust Speed 18 mph    
Visibility 8 miles    
Events      
Averages and records for this station are not official NWS values.
T = Trace of Precipitation, MM = Missing Value Source: NWS Daily Summary

Daily Weather History Graph

Daily Weather History Graph

Search for Another Location

Airport:

Trip Planner

Search our weather history database for the weather conditions in past years. The results will help you decide how hot, cold, wet, or windy it might be!

Date:

Astronomy

Mar. 07, 2013 Rise Set
Actual Time 6:56 AM EST 6:30 PM EST
Civil Twilight 6:29 AM EST 6:58 PM EST
Nautical Twilight 5:57 AM EST 7:29 PM EST
Astronomical Twilight 5:26 AM EST 8:01 PM EST
Moon 3:55 AM EST (3/7) 2:17 PM EST (3/7)
Length of Visible Light 12h 28m
Length of Day
11h 34m
Waning Crescent, 20% of the Moon is Illuminated
Mar 7
Waning Crescent
Mar 11
New
Mar 19
First Quarter
Mar 27
Full
Apr 3
Last Quarter

Hourly Weather History & Observations

Time (EST) Temp. Windchill Dew Point Humidity Pressure Visibility Wind Dir Wind Speed Gust Speed Precip Events Conditions
12:14 AM 32.0 °F 26.4 °F 26.6 °F 80% 30.19 in 7.0 mi NW 5.8 mph - N/A   Overcast
12:34 AM 32.0 °F 26.4 °F 26.6 °F 80% 30.19 in 7.0 mi NW 5.8 mph - N/A   Overcast
12:53 AM 32.0 °F 26.4 °F 26.6 °F 80% 30.19 in 7.0 mi WNW 5.8 mph - N/A   Overcast
1:14 AM 32.0 °F 25.6 °F 26.6 °F 80% 30.20 in 7.0 mi WNW 6.9 mph - N/A   Overcast
1:34 AM 30.2 °F 24.3 °F 26.6 °F 86% 30.20 in 7.0 mi WNW 5.8 mph - N/A   Overcast
1:53 AM 32.0 °F 24.8 °F 26.6 °F 80% 30.20 in 7.0 mi NW 8.1 mph - N/A   Overcast
2:14 AM 32.0 °F 25.6 °F 26.6 °F 80% 30.21 in 7.0 mi WNW 6.9 mph - N/A   Overcast
2:34 AM 32.0 °F 26.4 °F 26.6 °F 80% 30.21 in 7.0 mi NW 5.8 mph - N/A   Overcast
2:53 AM 32.0 °F 27.5 °F 26.6 °F 80% 30.20 in 7.0 mi NW 4.6 mph - N/A   Overcast
3:14 AM 32.0 °F 27.5 °F 26.6 °F 80% 30.20 in 7.0 mi NW 4.6 mph - N/A   Overcast
3:34 AM 32.0 °F 27.5 °F 26.6 °F 80% 30.20 in 7.0 mi NW 4.6 mph - N/A   Overcast
3:53 AM 30.2 °F 24.3 °F 26.6 °F 86% 30.20 in 7.0 mi WNW 5.8 mph - N/A   Overcast
4:14 AM 30.2 °F 24.3 °F 26.6 °F 86% 30.21 in 7.0 mi WNW 5.8 mph - N/A   Overcast
4:34 AM 30.2 °F 24.3 °F 26.6 °F 86% 30.21 in 7.0 mi WNW 5.8 mph - N/A   Overcast
4:53 AM 30.2 °F 25.4 °F 26.6 °F 86% 30.22 in 7.0 mi WNW 4.6 mph - N/A   Overcast
5:14 AM 30.2 °F 23.4 °F 26.6 °F 86% 30.23 in 7.0 mi WNW 6.9 mph - N/A   Overcast
5:34 AM 30.2 °F 24.3 °F 26.6 °F 86% 30.24 in 7.0 mi WNW 5.8 mph - N/A   Overcast
5:53 AM 30.2 °F 24.3 °F 26.6 °F 86% 30.24 in 7.0 mi WNW 5.8 mph - N/A   Overcast
6:14 AM 30.2 °F 25.4 °F 26.6 °F 86% 30.25 in 7.0 mi West 4.6 mph - N/A   Overcast
6:34 AM 30.2 °F 25.4 °F 26.6 °F 86% 30.25 in 7.0 mi West 4.6 mph - N/A   Overcast
6:54 AM 30.2 °F 24.3 °F 26.6 °F 86% 30.26 in 7.0 mi West 5.8 mph - N/A   Overcast
7:14 AM 30.2 °F 25.4 °F 26.6 °F 86% 30.27 in 5.0 mi West 4.6 mph - N/A   Overcast
7:34 AM 30.2 °F 24.3 °F 26.6 °F 86% 30.27 in 5.0 mi WNW 5.8 mph - N/A   Overcast
7:54 AM 30.2 °F 24.3 °F 26.6 °F 86% 30.28 in 5.0 mi West 5.8 mph - N/A   Overcast
8:14 AM 32.0 °F 26.4 °F 28.4 °F 87% 30.28 in 5.0 mi West 5.8 mph - N/A   Overcast
8:34 AM 32.0 °F 26.4 °F 28.4 °F 87% 30.29 in 5.0 mi West 5.8 mph - N/A   Overcast
8:54 AM 32.0 °F 26.4 °F 28.4 °F 87% 30.29 in 5.0 mi WNW 5.8 mph - N/A   Haze
9:14 AM 32.0 °F 25.6 °F 28.4 °F 87% 30.29 in 5.0 mi WNW 6.9 mph - N/A   Haze
9:34 AM 32.0 °F 23.6 °F 28.4 °F 87% 30.30 in 5.0 mi NW 10.4 mph - N/A   Haze
9:54 AM 32.0 °F 24.8 °F 28.4 °F 87% 30.30 in 5.0 mi NW 8.1 mph - N/A   Haze
10:14 AM 32.0 °F 23.6 °F 28.4 °F 87% 30.30 in 7.0 mi NW 10.4 mph - N/A   Overcast
10:34 AM 33.8 °F 25.8 °F 28.4 °F 81% 30.30 in 7.0 mi WNW 10.4 mph - N/A   Mostly Cloudy
10:54 AM 33.8 °F 27.0 °F 30.2 °F 87% 30.30 in 7.0 mi WNW 8.1 mph - N/A   Mostly Cloudy
11:14 AM 33.8 °F 27.0 °F 30.2 °F 87% 30.30 in 7.0 mi West 8.1 mph - N/A   Mostly Cloudy
11:34 AM 35.6 °F 29.2 °F 30.2 °F 81% 30.31 in 7.0 mi NW 8.1 mph - N/A   Mostly Cloudy
11:54 AM 35.6 °F 29.2 °F 30.2 °F 81% 30.31 in 10.0 mi West 8.1 mph - N/A   Mostly Cloudy
12:14 PM 35.6 °F 28.6 °F 30.2 °F 81% 30.31 in 7.0 mi WNW 9.2 mph - N/A   Mostly Cloudy
12:34 PM 35.6 °F 29.9 °F 30.2 °F 81% 30.31 in 10.0 mi WNW 6.9 mph - N/A   Mostly Cloudy
12:54 PM 35.6 °F 28.6 °F 30.2 °F 81% 30.30 in 10.0 mi West 9.2 mph - N/A   Mostly Cloudy
1:13 PM 35.6 °F 28.0 °F 32.0 °F 87% 30.30 in 10.0 mi West 10.4 mph - N/A   Mostly Cloudy
1:34 PM 35.6 °F 29.9 °F 30.2 °F 81% 30.30 in 10.0 mi NNW 6.9 mph - N/A   Overcast
1:54 PM 35.6 °F 29.9 °F 30.2 °F 81% 30.29 in 10.0 mi NW 6.9 mph - N/A   Overcast
2:13 PM 35.6 °F 28.0 °F 30.2 °F 81% 30.29 in 10.0 mi WNW 10.4 mph - N/A   Overcast
2:34 PM 35.6 °F 29.2 °F 30.2 °F 81% 30.29 in 10.0 mi NW 8.1 mph - N/A   Overcast
2:54 PM 35.6 °F 29.2 °F 30.2 °F 81% 30.29 in 10.0 mi NNW 8.1 mph - N/A   Overcast
3:13 PM 35.6 °F 29.9 °F 30.2 °F 81% 30.28 in 10.0 mi NW 6.9 mph - N/A   Overcast
3:34 PM 37.4 °F 29.8 °F 30.2 °F 75% 30.29 in 10.0 mi NW 11.5 mph 18.4 mph N/A   Scattered Clouds
3:54 PM 37.4 °F 28.9 °F 30.2 °F 75% 30.30 in 10.0 mi WNW 13.8 mph - N/A   Scattered Clouds
4:14 PM 37.4 °F 30.8 °F 28.4 °F 70% 30.30 in 10.0 mi NW 9.2 mph - N/A   Clear
4:34 PM 37.4 °F 29.8 °F 30.2 °F 75% 30.30 in 10.0 mi WNW 11.5 mph - N/A   Scattered Clouds
4:54 PM 37.4 °F 31.4 °F 28.4 °F 70% 30.30 in 10.0 mi NW 8.1 mph - N/A   Mostly Cloudy
5:14 PM 37.4 °F 29.8 °F 30.2 °F 75% 30.31 in 10.0 mi NW 11.5 mph - N/A   Overcast
5:34 PM 35.6 °F 28.0 °F 28.4 °F 75% 30.31 in 10.0 mi NW 10.4 mph - N/A   Overcast
5:54 PM 35.6 °F 29.2 °F 28.4 °F 75% 30.31 in 10.0 mi NW 8.1 mph - N/A   Overcast
6:14 PM 35.6 °F 27.5 °F 28.4 °F 75% 30.31 in 10.0 mi WNW 11.5 mph - N/A   Overcast
6:34 PM 33.8 °F 26.4 °F 30.2 °F 87% 30.32 in 10.0 mi WNW 9.2 mph - N/A   Overcast
6:54 PM 33.8 °F 27.0 °F 30.2 °F 87% 30.32 in 10.0 mi WNW 8.1 mph - N/A   Overcast
8:34 PM 32.0 °F 25.6 °F 28.4 °F 87% 30.35 in 10.0 mi NW 6.9 mph - N/A   Overcast
8:54 PM 32.0 °F 26.4 °F 28.4 °F 87% 30.35 in 10.0 mi NW 5.8 mph - N/A   Overcast
9:14 PM 32.0 °F 27.5 °F 28.4 °F 87% 30.34 in 10.0 mi NW 4.6 mph - N/A   Overcast
9:34 PM 32.0 °F 27.5 °F 28.4 °F 87% 30.35 in 10.0 mi NW 4.6 mph - N/A   Overcast
9:54 PM 32.0 °F 26.4 °F 28.4 °F 87% 30.35 in 10.0 mi NW 5.8 mph - N/A   Overcast
10:14 PM 32.0 °F 25.6 °F 28.4 °F 87% 30.35 in 10.0 mi NW 6.9 mph - N/A   Overcast
10:34 PM 32.0 °F 26.4 °F 28.4 °F 87% 30.35 in 10.0 mi NNW 5.8 mph - N/A   Overcast
10:54 PM 32.0 °F 27.5 °F 28.4 °F 87% 30.35 in 10.0 mi NNW 4.6 mph - N/A   Overcast
11:14 PM 32.0 °F 27.5 °F 28.4 °F 87% 30.35 in 10.0 mi North 4.6 mph - N/A   Overcast
11:34 PM 32.0 °F 25.6 °F 28.4 °F 87% 30.35 in 10.0 mi North 6.9 mph - N/A   Overcast
11:54 PM 32.0 °F 26.4 °F 28.4 °F 87% 30.35 in 10.0 mi North 5.8 mph - N/A   Overcast